FW3027 Weather Reports


time (UTC)temp
F
wind
direction
speed
knots
gust
knots
rain 1hr
in
rain 24hr
in
rain mn
in
humidity
%
barometer
mb
20260509091551 51 167 1.7 8.7 0.00 0.00 0.00 86 1001.2
20260509090005 51 166 2.6 9.6 0.00 0.00 0.00 86 1001.5
20260509084539 51 204 1.7 6.1 0.00 0.00 0.00 86 1001.7
20260509083009 51 173 2.6 7.0 0.00 0.00 0.00 85 1001.9
20260509081541 50 177 1.7 6.1 0.00 0.00 0.00 84 1002.2
20260509080051 49 172 0.9 5.2 0.00 0.00 0.00 81 1002.3
20260509074536 49 187 0.9 8.7 0.00 0.00 0.00 78 1002.4
20260509073105 49 219 1.7 7.8 0.00 0.00 0.00 73 1002.5
20260509071518 49 185 0.9 5.2 0.00 0.00 0.00 66 1002.8
20260509070039 49 155 0.0 5.2 0.00 0.00 0.00 64 1002.9
20260509064503 49 178 1.7 7.0 0.00 0.00 0.00 62 1002.9
20260509063032 49 147 1.7 7.0 0.00 0.00 0.00 60 1003.2
20260509061607 48 161 2.6 7.0 0.00 0.00 0.00 57 1003.4
20260509060017 47 164 4.3 7.0 0.00 0.00 0.00 57 1003.4
20260509054548 46 190 2.6 10.4 0.00 0.00 0.00 60 1003.7
20260509053015 45 168 1.7 6.1 0.00 0.00 0.00 59 1003.7
20260509051551 45 173 1.7 6.1 0.00 0.00 0.00 59 1003.6
20260509044531 45 156 2.6 6.1 0.00 0.00 0.00 61 1003.9
20260509043001 45 133 0.9 4.3 0.00 0.00 0.00 60 1004.0
20260509041600 46 151 0.0 2.6 0.00 0.00 0.00 59 1004.1
20260509040044 46 142 0.9 3.5 0.00 0.00 0.00 59 1004.2
20260509034508 46 151 0.0 2.6 0.00 0.00 0.00 58 1004.4
20260509033047 46 151 0.9 4.3 0.00 0.00 0.00 59 1004.6
20260509031521 47 157 0.0 4.3 0.00 0.00 0.00 57 1004.6
20260509030034 47 157 0.0 6.1 0.00 0.00 0.00 56 1004.8
20260509024507 48 161 0.0 4.3 0.00 0.00 0.00 57 1005.0
20260509023103 49 163 0.0 3.5 0.00 0.00 0.00 57 1005.2
20260509021517 49 163 0.0 2.6 0.00 0.00 0.00 52 1005.1
20260509020050 50 153 0.0 4.3 0.00 0.00 0.00 53 1005.0
20260509014518 52 173 0.0 2.6 0.00 0.00 0.00 51 1004.9
20260509013054 53 178 0.9 1.7 0.00 0.00 0.00 50 1005.0
20260509011521 54 180 0.0 1.7 0.00 0.00 0.00 47 1004.9
20260509010042 56 182 0.0 1.7 0.00 0.00 0.00 44 1005.0
20260509004518 57 201 0.0 1.7 0.00 0.00 0.00 39 1005.1
20260509003048 59 202 0.0 1.7 0.00 0.00 0.00 35 1005.1
20260509001519 59 187 1.7 4.3 0.00 0.00 0.00 35 1005.3
20260509000038 60 203 0.9 6.1 0.00 0.00 0.00 35 1005.4
20260508234508 61 234 0.0 4.3 0.00 0.00 0.00 33 1005.6
20260508233045 61 229 1.7 6.1 0.00 0.00 0.00 36 1005.6
20260508231517 62 261 5.2 8.7 0.00 0.00 0.00 32 1005.8
20260508230043 62 202 1.7 8.7 0.00 0.00 0.00 31 1005.8
20260508224514 62 306 0.9 6.1 0.00 0.00 0.00 31 1005.8
20260508223044 62 282 0.9 7.8 0.00 0.00 0.00 32 1006.0
20260508221516 63 299 1.7 8.7 0.00 0.00 0.00 32 1006.1
20260508220035 64 280 2.6 10.4 0.00 0.00 0.00 31 1006.0
20260508214522 65 315 3.5 7.8 0.00 0.00 0.00 29 1005.9
20260508213045 65 245 2.6 11.3 0.00 0.00 0.00 35 1006.1
20260508211527 65 325 3.5 10.4 0.00 0.00 0.00 31 1006.2
20260508210035 65 308 4.3 9.6 0.00 0.00 0.00 31 1006.3
20260508204505 65 355 0.9 8.7 0.00 0.00 0.00 30 1006.3
20260508203039 65 164 2.6 10.4 0.00 0.00 0.00 37 1006.5
20260508201509 65 252 4.3 10.4 0.00 0.00 0.00 34 1006.5
20260508200023 66 223 3.5 10.4 0.00 0.00 0.00 30 1007.0
20260508194553 65 225 7.0 14.8 0.00 0.00 0.00 36 1007.1
20260508193020 64 265 4.3 12.2 0.00 0.00 0.00 36 1007.3
20260508191557 63 186 2.6 7.0 0.00 0.00 0.00 37 1007.2
20260508190013 63 289 3.5 10.4 0.00 0.00 0.00 34 1007.4
20260508184541 63 225 3.5 7.8 0.00 0.00 0.00 35 1007.5
20260508183020 62 342 1.7 9.6 0.00 0.00 0.00 36 1007.7
20260508181600 62 256 3.5 7.8 0.00 0.00 0.00 35 1007.8
20260508174530 63 216 3.5 8.7 0.00 0.00 0.00 42 1008.0
20260508173003 62 205 0.9 6.1 0.00 0.00 0.00 42 1008.2
20260508171533 63 290 0.9 8.7 0.00 0.00 0.00 41 1008.5
20260508170054 62 227 4.3 10.4 0.00 0.00 0.00 42 1008.8
20260508164513 62 241 3.5 8.7 0.00 0.00 0.00 38 1009.0
20260508163042 62 165 1.7 7.0 0.00 0.00 0.00 45 1009.2
20260508161512 61 153 0.0 7.8 0.00 0.00 0.00 47 1009.2
20260508160025 61 174 2.6 7.0 0.00 0.00 0.00 39 1009.3
20260508154608 61 180 3.5 7.0 0.00 0.00 0.00 48 1009.5
20260508153017 60 152 1.7 7.0 0.00 0.00 0.00 44 1009.5
20260508151543 59 200 1.7 7.0 0.00 0.00 0.00 46 1009.6
20260508150056 59 173 1.7 7.0 0.00 0.00 0.00 48 1009.7
20260508144521 58 240 3.5 8.7 0.00 0.00 0.00 47 1009.9
20260508143050 58 198 2.6 8.7 0.00 0.00 0.00 45 1009.9
20260508141523 57 204 1.7 7.0 0.00 0.00 0.00 55 1010.0
20260508140026 55 234 1.7 6.1 0.00 0.00 0.00 61 1010.0
20260508134621 54 160 1.7 4.3 0.00 0.00 0.00 65 1010.0
20260508133027 51 209 0.9 3.5 0.00 0.00 0.00 68 1010.1
20260508131548 49 171 0.9 3.5 0.00 0.00 0.00 75 1010.2
20260508130055 46 184 0.0 4.3 0.00 0.00 0.00 82 1010.4
20260508124523 43 170 0.0 2.6 0.00 0.00 0.00 89 1010.6
20260508123051 41 153 0.9 4.3 0.00 0.00 0.00 91 1010.4
20260508121515 38 144 0.0 1.7 0.00 0.00 0.00 91 1010.3
20260508120034 36 124 0.0 3.5 0.00 0.00 0.00 89 1010.1
20260508114505 34 66 0.0 1.7 0.00 0.00 0.00 87 1010.0
20260508113039 33 15 0.0 0.0 0.00 0.00 0.00 86 1009.8
20260508111509 33 15 0.0 0.0 0.00 0.00 0.00 85 1009.9
20260508110027 33 15 0.0 0.0 0.00 0.00 0.00 85 1010.0
20260508104601 33 15 0.0 0.0 0.00 0.00 0.00 85 1009.7
20260508103036 34 15 0.0 0.0 0.00 0.00 0.00 84 1009.6
20260508101508 34 15 0.0 0.0 0.00 0.00 0.00 84 1009.8
20260508100023 34 15 0.0 0.0 0.00 0.00 0.00 84 1009.9
20260508094608 34 15 0.0 0.0 0.00 0.00 0.00 84 1009.8
20260508093030 35 15 0.0 0.0 0.00 0.00 0.00 84 1009.9